OneWeb SL0133

operational
NORAD ID: 47263 Int'l Des: 2020-100 Owner: ONEWEB Country: UK Constellation: oneweb
LEOCIRCULARPOLARONEWEB_TYPE

About OneWeb SL0133

Description loading...

Live Position

Loading 3D Globe...

Upcoming Passes

Altitude History

Altitude vs Time

uPlot chart will show altitude changes over time

Two-Line Element Set

1 47263U 20100F 25258.46362886 .00000255 00000-0 67340-3 0 9995
2 47263 87.8906 45.2277 0001667 94.6276 265.5043 13.12444736228498
Epoch: Sep 15, 2025 • Age: 19 hours

Current Status

Altitude 1223.9 km
Velocity 7.25 km/s
Sub-Earth Point 65.11°N, 134.99°E
Launch Date Dec 18, 2020
Age 4.7 years
Type internet

Technical Details

Classification Payload
Mass 148.00 kg
Dry Mass 140.00 kg
Total Mass 148.00 kg
Length 1.30 m
Diameter 1.00 m
Span 5.00 m
Shape Trapezoid+2 pan
Manufacturer ONEWUS
Bus Type ARROW
Phase Status In Orbit
Owner/State ONEWEB/UK

Large Constellations

Loading constellations...